Showing default

OPS 9381 (GGTS), 2207

Orbit data source: Space-Track

OPS 9381 (GGTS), 2207 is a payload satellite owned by USAF SSD (US) in GEO that was launched on Thu, 16 Jun 1966 UTC via a TITAN IIIC launch vehicle from the Air Force Eastern Test Range (AFETR). Payload-class satellites include a variety of spacecraft equipped with specific instruments for various scientific and technological missions. These include communications satellites like Starlink; space stations such as the ISS; scientific satellites like the Hubble; Earth observation satellites from companies like Planet Labs, Umbra, and HawkEye 360; GPS; miniature CubeSats for education and research; and military/defense satellites.

Not visible in the next 10 days
Identifier
2207, 1966-053A
Orbit
GEO
Last TLE update
20 hours ago
Origin
Manufacturer
GE/MSVD
Mission
Non-operational Defense Technology
Bus & Motor
GGTS, Unknown motor
Mass
47 kg wet, 47 kg dry
Launch date (UTC)
1966-06-16 (59 years ago)
Launch vehicle
TITAN IIIC
Launch site
Air Force Eastern Test Range (AFETR)
Object type
Payload
Rocket body
Debris
Shape & HBR
Poly + 2 Rod, 32 m
Radar Cross Section
0.926 m², Medium (>0.1 m² and < 1m²)

Expand to show TLE details & history

TLE from 20 hours ago
0 OPS 9381 (GGTS)
1 02207U 66053A   25128.82338128 -.00000119  00000-0  00000-0 0  9996
2 02207   7.9058  47.1189 0026689 228.5038 310.8110  1.08009594231591
Epoch: 2025-05-08T19:45Z
Definitive object data (Epoch: 2025-05-08T19:45:40.142Z)
Latitude
0.11038°
Longitude
62.91274°
Altitude
33,677.31 km
Speed
3.157 km/s
True Right ascension
15h 04m 52s
True Declination
0° 06' 37"
Sunlit
Object was in daylight at TLE epoch
Visualization TLE readout
Latitude
4.0556°
Longitude
32.98738°
Altitude
33,726.904 km
Speed
3.153 km/s
Apparent Right ascension
13h 00m 02s
Apparent Declination
-1° 34' 55"
Sunlit
Object is in daylight
Visualization observer readout
Local Sidereal Time
00:17:51
Azimuth
343.292° N
Elevation
-50.485°
Doppler factor
1
Orbital elements
Apogee altitude
33,856.15 km
Perigee altitude
33,641.959 km
Semi-major axis
40,127.191 km
Eccentricity
0.0026689
Inclination
7.9058°
RAAN
47.1189°
Arg. of periapsis
228.5038°
True anomaly
310.57902°
Mean anomaly
310.811°
Eccentric anomaly
310.69506°
Mean motion
0.27001 °/min
BSTAR
Unknown
Orbital period
1333.27 mins
Loading historical data...
2207 neighbors
Loading maneuver chart data...
Loading SW <> Apogee altitude chart data...
Loading historical data...
Loading historical data...
Loading historical data...
Loading historical data...
Loading historical data...
Loading historical data...
Loading historical data...

OPS 9381 (GGTS) Visibility forecast

Observer location: undefined°, undefined°

OPS 9381 (GGTS) is not visible in the next 10 days
Span
Click to sort rows by Start time (UTC) header in descending order
Start Az.
Max El. time (UTC)
Max El. Az.
Max El.
End time (UTC)
End Az.
|